Regional Weather Roundup
Issued by NWS

Home | Current Version | Previous Version | Graphics & Text | Print | Product List | Glossary On
Versions: 1 2 3 4 5 6 7 8 9 10 11 12 13 14 15 16 17 18 19 20 21 22 23 24 25 26 27 28 29 30 31 32 33 34 35 36 37 38 39 40 41 42 43 44 45 46 47 48 49 50
348
ASUS45 KSLC 221610
RWRUT

UTAH REGIONAL WEATHER ROUNDUP
NATIONAL WEATHER SERVICE SALT LAKE CITY UT
1000 AM MDT WED MAR 22 2017

UTZ001>011-023>025-221700-

NORTHERN UTAH

CITY           SKY/WX    TMP DP  RH WIND       PRES   REMARKS
BRIGHAM CITY     N/A     52  44  74 CALM      29.91F
DUGWAY         PTSUNNY   58  38  47 S6        29.89S
HILL AFB       PTSUNNY   54  43  66 E5        29.90R
LOGAN          CLOUDY    51  43  74 SW8       29.93R
OGDEN          CLOUDY    51  45  79 NW6       29.90R
SALT LAKE CITY PTSUNNY   56  47  71 N6        29.89R
WENDOVER       MOSUNNY   54  37  54 S6        29.91S
HEBER CITY     CLOUDY    50  39  66 NW5       29.95F

$$

UTZ011>015-024>027-221700-

CENTRAL/NORTHEAST UTAH

CITY           SKY/WX    TMP DP  RH WIND       PRES   REMARKS
PROVO AIRPORT  PTSUNNY   57  42  57 E9        29.92S
MOAB/CANYONLAN PTSUNNY   63  28  26 E8        29.95R
DELTA          PTSUNNY   55  34  44 S9        29.93S
PRICE          PTSUNNY   55  30  38 E9        29.97S
ROOSEVELT      MOSUNNY   57  34  41 CALM      29.98S
VERNAL         PTSUNNY   54  34  46 SE3       29.96R

$$

UTZ013>016-019>022-027-221700-

SOUTHERN UTAH

CITY           SKY/WX    TMP DP  RH WIND       PRES   REMARKS
BRYCE CANYON   MOSUNNY   47  29  49 SE12      30.08S
CEDAR CITY     MOSUNNY   55  31  39 SW9       29.96F
MILFORD        PTSUNNY   57  39  51 S13       29.94S
ST GEORGE      PTSUNNY   65  37  35 SE7       29.93R
HANKSVILLE     MOSUNNY   68  28  22 SW18G29   29.96S
BLANDING       CLOUDY    56  28  34 S5        30.15R

$$

REGIONAL REPORTS     COLORADO/ARIZONA

CITY           SKY/WX    TMP DP  RH WIND       PRES   REMARKS
CRAIG, CO      CLOUDY    53  31  42 VRB3      30.01R
GRAND JUNCTION PTSUNNY   63  30  28 CALM      29.98R
RIFLE, CO      MOSUNNY   51  35  54 CALM      30.02S
MONTROSE, CO   MOSUNNY   56  26  31 CALM      30.05S
CORTEZ, CO     CLOUDY    60  29  30 SE14      30.10R
COLORADO CITY    N/A     59  34  38 SE8       30.03R
PAGE, AZ       PTSUNNY   65  32  29 SW10      29.98R
GRAND CANYON   MOSUNNY   53  30  41 S16       30.09F
KINGMAN, AZ    CLOUDY    62  36  37 SW13      29.98S
FLAGSTAFF, AZ  PTSUNNY   50  33  52 SW17      30.12S

$$

REGIONAL REPORTS    NEVADA/IDAHO/WYOMING

CITY           SKY/WX    TMP DP  RH WIND       PRES   REMARKS
LAS VEGAS, NV  MOSUNNY   66  37  34 SW18G24   29.89S
ELY, NY        SUNNY     50  30  46 S17G25    29.93S
ELKO, NV       CLOUDY    43  37  79 NE3       29.94S
POCATELLO, ID  PTSUNNY   46  44  93 SW7       29.97R
BURLEY, ID     CLOUDY    44  38  79 S9        29.96R
FORT BRIDGER,  CLOUDY    44  41  88 SE10      30.03R
EVANSTON, WY   CLOUDY    44  39  82 S10       29.99R
ROCK SPRINGS,  LGT RAIN  47  37  68 VRB7      30.01S
KEMMERER, WY     N/A     41  36  81 S7        29.99S

$$




USA.gov is the U.S. government's official web portal to all federal, state and local government web resources and services.